Погода в Владимире

Погода в Владимире : погода сейчас, прогноз погоды и архив. Всё, что Вы хотите узнать о погоде в Владимире!

Хотите узнать прогноз погоды в Владимире? Тогда Вам сюда: Погода в Владимире

Поиск расширенной информации на нашем сайте:

Другие новости

Новости СМИ2

Главная страница сайта

Новости сайта

03.07.2017

Напоминаем, что на нашем специализированном сайте Метеоцентр.Азия вы можете получить высокодетализированные автоматические прогнозы погоды по пунктам России, СНГ и мира в авиационном формате (включающие направление и скорость ветра, видимость, явления погоды, количество и форму облачности, нижнюю и верхнюю границу облачности).

Рекомендуем: Быстрый ремонт компьютеров во фряново у нас всегда отвечает стандартам.

Погода в Владимире - сегодня

Время (UTC), дата Ветер
(°,м/с) 
Видим.   Явления Облачность Т
(°С)
Тd
(°С)
f(%) Тe
(°С)
Pmin
(гПа)
dP
(гПа)
Po
(мм)
O2
(г/м3)
Тmin Tmax R s Состояние
почвы
00 18.11.17 220 (ЮЗ) 6-10{10}  4000 м  дымка  10/8 600 м средняя 
[Sc|Ac und]
+0.7 -1.9 83 -3  1016.7  -1  746  300           
03 18.11.17 220 (ЮЗ) 5{10}  2000 м  слаб. снег{ливн. осадки}  10/10 240 м 
+0.5 -0.9 90 -2  1016.3  -0.4  746  300  -0.6    0.3  <0.5  равномерный
мокрый или
старый снег
100% 
06 18.11.17 230 (ЮЗ) 4000 м  дымка{ливн. осадки}  10/10 330 м кучево-дожд. 
[Cb calv]
+0.9 -0.4 91 -1  1016.9  0.6  747  300           
09 18.11.17 220 (ЮЗ) 10 км    10/10 570 м 
[Sc]
+2.1 +0.1 87 1017.6  0.8  747  299           
12 18.11.17 210 (ЮЗ) 10 км    8/8 600 м 
[Sc]
+2.4 -0.4 82 1017  -0.5  747  298           
15 18.11.17 190 (Ю) 10 км    8/8 840 м 
[Sc]
+1.3 -0.8 86 +1  1017.2  0.1  747  300    +2.7  0.0     
18 18.11.17 200 (Ю) 10 км    10/10 870 м 
[Sc]
+0.9 -0.7 89 -1  1016.5  -0.7  746  300           
21 18.11.17 190 (Ю) 10 км    10/10 700 м 
[Sc]
+1.1 -0.5 89 1016.2  -0.3  746  299           
00 19.11.17 190 (Ю) 10 км    10/10 660 м 
[Sc]
+1 -1 86 1015.4  -0.8  746  299           
03 19.11.17 160 (Ю) 4000 м  слаб. ливневой снег  10/10 270 м кучево-дожд. 
[Cb calv]
+0.5 -0.5 93 1014.4  -1.2  745  300  +0.5    0.0     
06 19.11.17 170 (Ю) 2000 м  слаб. снег{ливн. осадки}  10/10 120 м 
[Frnb|Ns]
+0.1 -0.5 96 -1  1013.5  -0.7  744  300  +0.1         
09 19.11.17 180 (Ю) 4000 м  слаб. снег  10/10 180 м 
[Frnb|Ns]
+0.6 -0.4 93 -1  1012.8  -0.7  744  299           
12 19.11.17 170 (Ю) 4000 м  слаб. снег  10/10 180 м 
[Frnb|Ns]
+0.6 -0.2 94 1011.9  -0.9  743  299           
15 19.11.17 170 (Ю) 4000 м  слаб. снег  10/10 150 м 
[Frnb|Ns]
+0.6 -0.1 95 1011.2  -0.6  742  298    +0.8     
18 19.11.17 160 (Ю) 4000 м  слаб. снег  10/10 180 м 
[Frnb|Ns]
+0.2 -0.4 96 -1  1009.8  -1.4  741  298           
21 19.11.17 160 (Ю) 4000 м  слаб. снег  10/10 150 м 
[Frnb|Ns]
+0.2 -0.4 96 -1  1009.1  -0.6  741  298           
00 20.11.17 190 (Ю) н/о    н/о 
+0.1 -0.5 96 -1  1008.3  -0.8  740  298           
03 20.11.17 210 (ЮЗ) 4000 м  в посл. час снег  10/10 120 м 
[Frnb|Ns]
+0.2 -0.4 96 -2  1009.3  0.8  741  298  +0.1    равномерный
мокрый или
старый снег
100% 
06 20.11.17 240 (ЮЗ) 4000 м  слаб. снег  10/10 180 м 
[Frnb|Ns]
+0.4 -0.6 93 -2  1010.9  1.7  742  299           
09 20.11.17 210 (ЮЗ) 4000 м  дымка{снег}  10/10 570 м 
[Sc]
+0.7 -0.9 89 1013  2.1  744  299           
12 20.11.17 200 (Ю) 10 км  дымка{снег}  10/10 720 м 
[Sc]
+0.9 -1.8 82 +2  1013.4  0.4  744  299           
15 20.11.17 160 (Ю) 10 км    10/10 630 м 
[Sc]
+0.3 -2 85 +1  1013.8  0.4  744  300    +1  0.0     
18 20.11.17 080 (В) 10 км    10/10 540 м 
[Sc]
+0 -2.3 84 +1  1013.5  -0.4  744  300           
21 20.11.17 070 (В) 4000 м  слаб. снег  10/10 240 м 
[Frnb|Ns]
-0.5 -1.8 91 -1  1011.5  -2  743  300           
00 21.11.17 040 (СВ) 2000 м  слаб. снег  10/10 210 м 
[Frnb|Ns]
-0.9 -1.5 96 -3  1009.1  -2.4  741  300           
Время (UTC), дата Ветер
(°,м/с) 
Видим.   Явления Облачность Т
(°С)
Тd
(°С)
f(%) Тe
(°С)
Pmin
(гПа)
dP
(гПа)
Po
(мм)
O2
(г/м3)
Тmin Tmax R s Состояние
почвы

Для получения пояснительной информации подведите курсор к названию столбца.

ПОГОДА в Владимире - архив

Всё, что Вы хотите узнать о погоде в Владимире - удобно и подробно!

Выберите нужную дату (начиная с 1 января 2015* года) и нажмите кнопку "Найти".
Будут отображены архивные сводки погоды по пункту Владимир, начиная с указанной даты.


Отображать данные в формате CSV (для использования в таблицах Excel)


Внимание! Наш архив погоды предназначен исключительно для личного некоммерческого использования в познавательных целях. Если Вам необходимы официальные справки о состоянии погоды (для производственных, юридических, коммерческих и т.п. целей), обращайтесь в органы Росгидромета.

*Примечание: данная дата относится к архиву по метеостанциям СССР (Россия, СНГ, Балтия).
Архив по метеостанциям Зарубежной Европы и Азии (кроме Китая) хранится 10 дней, по другим регионам земного шара (Китай, Африка, Америка, Австралия, Океания) - 1 день.

Владимир - район местоположения метеостанции


Название, широта, долгота, высота метеостанции:
Владимир 56.1°ш. 40.3°д. 172 м над ур. моря [Российская Федерация]

Дополнительная информация

В oтличие oт бoльшинства пoгoдных сайтoв мы публикуем пoдрoбную метеoинфoрмацию в детальнoм прoфессиoнальнoм фoрмате.

Характеристики температуры и влажнoсти вoздуха измеряются на высoте 2 м в тени вдали oт зданий и деревьев.
Скoрoсть ветра измеряется на высoте 10 м (на урoвне рoста челoвека скoрoсть ветра ниже в 1.5-2 раза). Если метеoстанция нахoдится в гoрoде или в лесу, тo скoрoсть ветра занижена на 2-4 м/с пo сравнению с oткрытым местoм. Скoрoсть ветра над акватoриями крупных рек и oзёр, а также на вершинах хoлмoв на 2-5 м/с выше, чем в oбычных услoвиях.
Атмoсфернoе давление в разных тoчках местнoсти мoжет значительнo oтличаться oт давления на метеoстанции, в зависимoсти oт услoвий рельефа (при пoдъёме на 10 м давление пoнижается примернo на 1 мм рт.ст.).